Wind_Speed
18 19 19 20 21 21 22 22 23 24 25 26 26 27 27 28 28 28 28 29 28 27 26 24 23 24 26 28 29 30 30 30 29 28 26 25 26 26 26 28 28 29 30 29 30 31 32 31 31 32 33 35 38 38 36 34 34 35 35 36 36 35 35 37 39 38 38 38 38 39 41 42 43 43 42 43 45 45 46 48 47 48 49 45 48 54 46
21 21 22 23 23 24 24 24 25 26 27 28 29 30 30 30 31 30 30 30 29 27 25 25 27 28 28 30 31 30 31 30 29 29 28 27 28 28 28 29 29 30 31 30 31 33 33 33 32 33 34 36 37 37 37 36 35 36 37 36 35 35 35 37 38 39 39 38 38 39 38 38 40 40 39 39 40 42 45 46 47 50 49 46 51 54 48
22 23 24 25 26 26 26 27 27 28 30 31 31 32 32 32 32 32 31 31 30 28 27 29 31 32 31 31 32 32 32 30 28 29 30 28 28 30 30 30 30 31 31 31 31 33 34 35 34 34 34 36 37 38 39 37 36 38 39 38 38 39 39 40 41 42 41 39 39 38 34 35 40 42 40 38 39 42 44 44 46 49 49 48 52 54 51
24 25 26 27 27 28 28 29 30 31 32 33 34 34 34 34 34 34 33 32 31 30 30 31 33 33 34 34 33 32 33 32 28 28 30 30 29 30 31 31 31 32 32 33 33 33 34 35 36 36 36 36 38 40 41 38 37 39 40 40 41 42 42 42 43 43 43 41 40 40 41 42 44 46 46 44 45 46 46 46 49 50 50 50 50 51 54
26 27 28 28 29 29 30 32 33 34 35 36 36 36 36 36 35 35 35 34 33 32 32 32 34 34 35 35 34 33 33 33 31 28 29 30 30 31 32 32 32 33 33 34 34 34 35 36 37 37 37 37 39 41 42 41 40 40 41 42 43 43 43 43 43 43 43 42 42 42 44 45 45 46 47 46 47 48 48 49 51 51 53 54 49 48 54
28 29 30 31 31 32 33 34 36 36 37 37 38 37 37 37 36 36 35 35 34 34 34 34 35 36 36 36 36 34 32 33 33 31 30 31 31 32 33 32 33 34 34 35 35 35 36 37 37 38 39 39 39 40 42 43 42 42 42 42 43 45 44 43 44 45 43 43 44 44 45 46 47 47 48 46 46 48 49 50 49 50 54 56 51 50 53
30 31 32 33 34 35 36 37 38 38 38 38 39 38 37 37 37 36 36 35 35 35 36 36 37 37 37 36 36 35 33 33 34 33 32 32 32 33 33 33 34 35 35 35 36 37 38 38 38 38 39 40 40 40 41 42 42 43 43 43 44 45 45 45 46 46 45 45 45 46 46 46 47 48 48 48 48 50 51 50 48 48 51 52 50 51 52
33 33 34 35 36 37 38 38 39 38 39 38 38 38 38 37 37 37 36 36 36 36 37 37 38 39 38 36 35 34 34 34 34 33 33 33 33 34 34 33 35 35 35 35 36 37 39 38 38 39 40 40 40 40 41 41 41 42 43 44 43 44 45 46 47 47 47 46 46 47 46 46 48 49 49 49 49 49 48 48 46 47 49 49 49 52 53
35 35 36 37 37 38 38 39 39 38 38 38 37 37 37 37 37 37 37 37 37 37 38 37 37 38 38 36 35 35 35 35 34 34 34 34 34 35 35 34 35 35 35 35 37 38 37 37 38 40 40 40 40 40 40 41 42 42 42 43 43 43 44 45 46 48 48 46 46 47 45 46 49 51 49 49 47 46 46 47 47 48 49 49 50 52 52
36 36 37 38 38 38 38 38 38 38 37 37 37 37 37 37 37 37 38 38 38 37 38 37 36 36 37 37 37 36 36 35 35 34 34 34 34 35 35 35 35 35 35 36 38 38 36 37 39 39 39 39 40 41 40 41 42 42 41 42 43 43 45 45 45 47 48 46 45 45 45 49 53 51 48 47 45 44 45 45 44 44 45 46 47 47 46
36 36 37 37 37 37 37 36 36 36 36 36 36 36 37 37 37 37 37 38 37 36 36 37 37 37 37 37 37 37 37 36 36 35 34 34 34 35 35 36 36 36 36 37 38 37 37 38 39 39 39 40 40 41 41 41 41 41 41 42 43 43 44 44 43 46 48 47 45 43 47 53 53 48 45 46 45 43 43 43 42 41 42 44 45 45 44
35 35 36 36 36 36 36 36 36 36 36 36 36 36 36 36 37 37 37 37 38 37 37 38 38 38 38 38 37 37 37 37 37 36 35 34 35 36 36 37 37 36 37 38 37 37 38 38 39 39 40 40 40 41 41 41 41 41 41 42 43 43 43 43 43 44 46 46 45 47 52 54 51 46 45 46 44 43 43 42 40 40 42 45 46 46 45
34 35 35 35 36 36 36 36 36 36 36 36 36 36 36 37 37 38 38 38 38 38 38 38 39 38 37 38 38 37 37 37 37 37 36 36 36 37 37 38 38 37 37 38 37 37 38 38 39 40 40 40 41 41 41 41 42 42 42 41 42 42 41 41 41 42 44 45 46 51 54 52 49 48 45 41 42 43 44 44 43 42 43 44 45 46 46
34 35 35 36 36 36 37 37 37 37 37 37 37 37 37 38 39 39 39 38 38 38 37 38 39 38 37 37 38 38 38 38 38 37 37 37 37 37 38 38 39 38 38 38 38 39 39 40 40 40 39 40 41 42 42 42 43 44 44 42 41 41 39 38 40 41 42 44 46 47 47 47 47 46 41 39 42 45 46 47 46 42 42 45 46 46 46
36 36 37 37 37 38 38 39 39 39 39 38 38 38 39 39 39 38 38 38 38 38 37 37 38 39 39 38 38 38 38 38 38 38 38 38 38 37 37 38 38 39 38 38 39 39 40 41 41 40 40 40 40 41 42 42 43 44 44 42 42 41 39 37 38 39 40 41 43 42 43 44 43 42 44 45 45 47 48 48 45 42 42 44 45 44 41
37 38 38 39 39 39 40 40 40 40 40 39 39 39 39 39 39 39 39 39 39 39 39 38 38 39 40 40 39 39 39 38 37 37 38 39 39 38 38 37 37 37 38 39 40 40 40 41 41 41 41 41 41 42 43 42 43 43 42 42 42 40 36 33 35 39 40 41 42 43 46 47 44 45 51 49 44 44 46 45 43 42 40 41 42 41 38
39 39 39 40 40 40 40 40 40 40 40 40 40 40 40 40 41 41 41 40 40 39 39 39 40 39 39 39 39 38 39 38 37 38 37 38 38 38 38 38 36 37 38 39 39 40 41 41 41 41 41 40 41 43 43 43 44 44 42 41 41 39 37 35 37 41 42 42 44 46 48 47 45 47 51 47 43 46 46 43 42 41 41 42 42 41 40
40 40 40 40 40 40 41 41 41 41 42 41 42 42 42 42 41 41 40 40 39 39 38 38 39 39 39 39 38 38 38 38 38 38 37 37 37 37 37 37 37 37 38 38 39 40 40 40 41 41 41 41 42 44 44 45 45 43 41 42 41 39 38 38 39 43 44 43 44 47 47 46 45 45 46 44 43 44 44 42 41 41 43 45 43 41 41
41 41 41 41 41 41 42 42 42 42 42 42 42 42 41 41 40 39 38 38 38 38 38 37 37 38 39 38 38 38 38 38 39 39 38 37 37 36 35 36 37 37 37 39 39 39 40 40 41 41 42 43 43 43 43 43 43 42 41 42 41 38 38 39 38 40 43 43 43 46 45 43 42 43 43 42 41 40 38 37 38 38 39 42 41 40 41
41 41 41 41 41 41 41 41 41 41 41 40 40 40 39 38 38 37 37 36 37 38 38 37 37 38 38 37 37 38 38 39 38 38 37 37 37 36 35 36 37 36 36 38 39 39 40 41 40 42 44 45 43 42 42 43 44 44 42 41 39 37 39 40 37 38 43 44 42 42 42 41 40 41 41 39 40 41 39 39 39 38 36 38 39 38 38
39 39 39 39 39 39 39 39 39 39 39 38 38 38 37 37 36 37 37 37 37 38 38 38 37 37 38 37 37 38 38 39 38 37 36 36 36 36 35 36 37 37 38 38 38 39 40 41 41 43 45 45 44 44 45 46 46 44 41 38 39 40 41 41 38 38 42 42 38 37 39 40 42 43 41 39 39 39 37 36 37 36 35 36 36 36 36
37 37 37 37 37 37 37 37 37 37 37 37 37 37 37 37 37 37 37 38 38 38 38 38 38 37 37 37 37 38 38 38 37 37 36 36 36 36 36 36 37 39 40 39 40 40 41 42 44 45 45 45 45 45 46 47 46 44 41 40 41 42 40 39 39 38 40 40 37 35 37 39 40 41 40 39 38 36 35 35 35 35 35 33 30 31 33
36 36 36 37 37 37 37 37 38 38 38 38 37 37 38 38 38 38 38 38 37 37 38 39 38 38 38 37 37 38 37 37 36 36 36 36 36 36 37 37 38 40 40 40 41 42 43 43 45 46 47 46 45 45 47 48 47 47 46 44 43 40 37 38 40 37 36 36 34 33 35 36 37 38 40 40 39 37 38 37 34 35 36 32 28 28 30
37 37 38 38 38 38 38 38 38 38 38 38 38 37 38 38 38 38 38 38 37 36 37 38 38 38 38 38 37 37 36 35 35 35 36 37 37 37 37 37 39 40 41 42 43 44 45 45 46 47 48 46 45 47 49 50 49 47 45 42 39 37 37 40 40 36 32 31 30 30 32 31 31 33 36 38 38 36 36 36 34 34 35 33 29 28 28
39 39 39 39 39 38 38 38 38 38 38 38 37 37 37 38 37 36 37 37 36 36 37 37 37 37 37 37 37 36 35 35 35 35 36 37 38 38 38 39 41 41 42 44 45 45 46 46 47 48 48 47 46 48 49 49 47 45 43 40 36 35 37 38 37 34 34 33 31 29 28 26 27 29 31 33 35 34 32 32 32 33 33 32 30 29 26
39 39 39 38 38 38 38 38 37 37 37 37 37 36 36 37 36 36 36 36 36 36 36 36 35 35 36 37 37 36 36 36 37 36 37 37 38 40 41 41 42 42 43 45 46 46 47 47 47 48 49 47 47 48 48 47 43 41 41 38 34 34 35 33 33 35 35 33 32 30 27 24 25 28 31 33 34 32 29 27 28 31 32 31 29 27 25
37 37 37 37 36 36 36 36 36 36 36 36 36 35 36 36 36 36 36 36 36 36 35 34 33 34 36 38 38 37 37 38 38 38 39 40 40 42 43 43 44 44 44 46 46 46 47 47 47 47 47 46 46 47 46 42 39 37 35 32 29 31 31 31 34 37 35 32 31 30 29 27 26 29 33 34 32 31 28 24 23 28 30 29 27 25 24
36 36 36 36 36 36 36 35 35 35 35 35 35 35 35 35 35 36 36 36 36 35 35 34 33 33 36 38 38 38 38 39 40 40 40 42 43 44 45 45 45 45 45 46 46 46 46 45 44 43 44 43 43 42 39 36 35 32 29 26 27 29 29 30 34 36 35 34 33 31 31 30 27 28 32 33 31 30 30 25 23 25 28 27 24 23 23
36 36 36 36 36 36 35 35 35 35 35 34 34 34 34 34 34 35 35 35 35 35 35 35 34 34 36 38 39 39 40 41 42 43 44 45 46 48 48 47 47 46 46 46 45 43 43 42 40 40 40 40 39 38 36 35 34 30 26 25 28 29 28 28 28 29 31 34 35 32 31 29 27 27 30 31 30 30 28 26 24 25 25 25 23 20 19
36 35 35 35 35 35 35 34 34 34 34 34 34 34 33 33 33 33 33 34 34 35 36 36 35 35 36 38 39 41 42 44 45 46 47 48 48 48 49 48 46 43 42 41 39 38 39 38 38 38 36 34 35 36 33 32 31 27 24 25 27 26 24 23 24 29 32 33 33 31 28 27 27 28 28 29 29 27 23 23 25 25 23 22 20 16 14
35 34 34 34 34 34 34 34 34 33 33 33 33 33 33 32 32 32 32 33 34 35 37 38 37 37 39 41 43 44 46 47 48 48 48 49 48 47 46 44 41 38 36 35 36 36 36 35 35 34 32 30 32 31 29 29 27 22 20 22 23 22 22 21 23 28 31 32 31 29 27 26 27 28 28 27 26 25 22 23 25 24 21 19 16 12 9
33 32 32 32 32 33 33 33 33 32 32 32 32 31 32 32 32 32 33 34 35 37 38 39 40 41 43 45 46 47 48 49 48 47 47 46 43 42 40 37 35 34 34 34 35 35 33 32 31 30 28 28 30 28 27 26 23 17 17 21 21 20 22 23 22 23 27 29 30 28 27 26 26 27 27 27 25 25 25 24 23 22 20 17 14 12 8
31 31 31 31 31 32 32 32 32 31 31 31 31 30 31 32 32 33 34 36 37 38 40 42 44 46 47 48 48 47 48 46 44 42 42 39 36 34 35 35 34 33 32 31 30 28 28 28 29 26 24 25 27 28 26 24 20 18 21 22 20 18 20 22 21 21 23 24 26 26 25 25 26 27 27 26 25 24 25 22 20 20 20 16 13 12 10
30 30 30 30 30 31 31 31 31 30 30 30 30 30 31 32 33 34 35 37 39 40 42 45 47 48 49 49 47 45 44 40 37 36 36 35 33 32 33 34 33 31 30 28 26 24 23 25 26 26 23 22 25 25 21 18 18 21 21 19 16 17 19 20 20 20 20 20 22 22 21 23 25 25 24 24 24 23 22 20 19 21 21 16 12 12 12
29 29 29 30 30 30 30 30 30 29 30 30 30 31 32 33 34 35 36 38 41 43 45 47 49 49 50 49 46 42 39 36 34 33 32 32 31 30 29 30 29 27 27 27 25 23 22 23 24 24 21 21 22 21 16 15 18 20 16 14 15 17 18 19 18 18 18 19 18 18 19 22 24 23 22 22 22 20 19 18 19 21 20 15 11 13 13
29 29 29 29 29 29 29 29 29 30 30 30 30 31 33 34 35 36 38 40 43 44 46 48 48 48 47 46 43 40 37 34 33 31 29 29 30 28 27 27 27 26 26 25 23 21 20 21 22 22 20 19 19 17 14 15 17 16 15 15 16 16 17 18 16 15 17 17 16 17 19 21 23 24 24 23 21 18 16 17 18 20 19 15 11 12 10
29 29 29 29 29 28 28 28 28 29 30 31 31 32 34 35 37 38 40 42 44 45 47 47 46 44 43 41 38 37 34 32 31 30 28 28 28 28 27 27 27 25 22 20 19 18 17 17 18 19 18 17 16 15 13 13 14 16 17 17 16 15 16 16 14 13 14 15 15 16 19 22 25 26 24 21 19 17 16 15 17 18 16 14 13 11 9
29 29 29 29 28 28 28 28 28 29 30 31 32 34 35 37 39 41 42 44 46 46 47 46 43 40 39 36 34 33 33 30 29 29 28 27 27 26 25 24 23 21 17 15 14 14 13 12 14 14 14 14 13 12 10 9 12 15 16 15 14 14 14 15 14 12 13 15 15 15 17 21 25 26 23 19 17 16 15 15 16 16 14 14 14 12 10
29 29 29 29 29 28 29 29 29 30 31 32 33 35 37 38 40 42 44 45 46 46 46 44 41 37 35 33 32 32 32 31 29 27 26 25 25 24 22 19 18 16 14 12 11 11 11 12 12 11 11 11 9 9 9 10 12 14 14 13 13 12 11 11 12 12 13 16 16 15 15 18 22 23 21 18 16 15 14 15 15 14 13 15 15 12 11
29 29 29 29 29 29 29 29 30 31 32 33 34 36 38 40 42 43 44 45 45 43 42 40 37 34 33 33 32 31 31 30 28 25 23 22 22 20 17 15 12 9 7 8 10 10 10 12 12 12 11 9 8 9 11 12 12 14 13 12 11 9 8 8 9 10 12 14 14 13 13 15 18 20 19 17 15 14 14 14 14 13 13 15 17 15 13
28 28 29 29 29 29 29 30 30 31 32 34 35 37 39 41 43 44 44 44 42 40 38 36 33 32 32 32 31 29 28 27 25 23 20 19 18 17 13 10 8 4 3 6 8 9 10 10 11 12 12 9 7 8 9 9 11 13 13 12 10 8 7 7 7 8 9 10 11 11 12 14 16 18 17 15 14 13 13 12 13 13 13 15 18 17 16
27 27 28 28 29 29 29 30 30 31 32 34 36 38 40 42 43 44 44 44 40 36 34 34 33 32 31 30 28 27 26 23 21 20 18 16 15 14 9 6 5 5 5 5 6 7 9 10 11 11 11 9 6 4 5 7 11 12 12 10 9 8 7 7 7 6 6 8 10 10 10 12 14 15 16 15 14 13 12 13 13 13 13 15 17 19 18
27 27 28 28 28 29 29 30 31 31 33 35 38 40 42 43 44 43 42 41 38 35 33 33 33 32 31 28 25 24 22 20 18 17 16 14 13 10 5 6 6 6 6 6 5 5 8 10 11 10 10 7 3 2 4 7 10 11 10 9 8 7 7 6 6 5 4 5 8 9 9 10 11 12 13 14 14 13 13 13 13 13 14 15 16 18 18
27 28 28 28 28 29 30 31 31 32 34 37 39 41 42 44 44 43 40 38 35 33 33 34 32 29 27 24 22 20 20 19 17 15 13 11 8 5 4 6 7 6 6 6 5 5 8 10 10 7 6 4 2 4 5 6 7 9 9 8 8 9 8 7 6 4 2 3 6 7 7 7 8 9 10 12 12 12 12 11 11 13 15 16 15 14 15
27 28 28 28 29 30 31 32 32 33 35 38 40 41 42 42 42 41 39 35 33 32 32 32 30 26 23 20 19 17 17 17 16 13 9 6 4 4 4 6 7 6 5 5 6 8 10 12 10 4 2 2 4 6 5 5 5 6 7 10 11 10 10 8 5 2 1 1 3 5 6 5 6 7 8 9 9 8 7 6 8 10 13 15 14 13 15
27 28 28 28 29 30 31 32 33 35 37 39 41 42 42 42 41 39 36 33 32 32 32 30 27 24 20 18 16 16 16 16 14 9 5 4 5 6 6 6 6 7 7 7 8 9 12 13 9 4 4 4 4 3 4 5 6 7 9 9 9 10 10 8 3 1 3 4 5 6 6 5 4 6 9 12 12 11 9 7 7 8 11 13 13 14 16
28 28 28 28 30 31 32 33 34 36 38 40 41 41 42 41 40 37 34 31 31 31 30 27 24 21 18 15 14 14 15 14 11 6 5 6 5 6 7 6 6 7 8 8 8 11 13 13 8 6 6 6 5 4 6 9 10 10 8 6 7 8 8 6 4 4 7 8 8 7 6 6 5 7 9 11 11 9 7 8 9 9 10 10 10 10 11
28 28 28 29 31 32 32 33 36 38 40 41 41 41 41 41 38 35 32 30 30 29 27 25 21 18 16 14 14 13 13 12 8 6 8 7 6 5 6 6 6 7 7 7 9 12 14 13 9 8 8 7 7 7 8 8 9 8 6 6 7 7 6 5 4 5 6 7 7 6 5 6 6 7 7 8 8 7 6 7 9 8 7 6 6 7 8
28 29 29 30 32 33 33 34 36 38 41 42 42 41 41 40 37 34 30 30 30 29 26 22 18 15 13 13 13 13 12 10 8 8 9 9 8 7 6 6 6 6 6 6 9 13 15 14 11 10 10 10 11 11 11 10 10 8 7 7 8 7 6 5 5 5 5 5 5 5 4 4 4 4 4 4 5 5 4 5 7 7 6 6 6 8 9
29 29 30 32 33 33 34 35 36 39 40 41 42 42 41 38 36 33 30 28 29 28 24 19 16 13 12 12 13 12 11 9 9 10 10 10 9 9 7 6 7 8 7 5 6 12 16 15 12 11 13 14 14 13 13 13 12 10 9 8 8 8 7 7 6 6 6 5 4 4 4 4 3 3 3 2 2 2 2 3 4 5 6 6 6 7 8
29 30 32 33 33 34 35 36 38 39 40 39 40 41 40 37 34 32 30 28 27 25 21 17 14 13 12 12 12 11 10 9 10 11 11 10 10 9 8 7 7 8 7 4 5 9 11 11 11 13 16 17 16 15 14 13 12 11 10 10 9 9 8 7 6 6 5 5 6 6 6 6 6 5 5 4 4 4 4 4 4 4 5 6 7 7 8
30 31 33 34 34 34 35 36 38 40 40 39 38 39 38 35 32 30 30 28 25 22 19 16 14 12 12 11 11 10 9 9 10 12 12 12 10 9 8 7 7 6 6 5 7 11 11 10 11 13 15 16 16 14 13 12 11 11 10 11 10 10 9 8 7 6 6 6 7 7 8 8 8 8 8 7 7 7 8 8 8 8 8 8 9 10 11
Wind_Direction
275 279 284 288 293 298 301 305 307 309 311 312 312 312 311 311 310 309 309 308 307 306 303 300 299 301 303 303 305 307 305 303 300 295 291 286 281 278 275 272 271 270 269 268 268 268 267 267 267 267 267 267 267 269 270 269 268 268 269 269 269 269 269 270 270 270 271 272 273 273 274 273 272 271 271 269 268 267 267 267 268 267 266 265 266 267 267
277 281 284 288 291 295 298 301 303 305 306 308 309 308 308 308 307 306 306 305 304 302 299 296 297 299 301 302 303 304 302 300 297 293 290 286 284 281 278 275 273 271 270 269 269 269 269 268 267 266 267 268 268 269 269 269 270 269 268 269 270 269 269 270 271 272 273 274 275 276 276 273 271 270 269 267 267 266 265 264 264 263 264 265 263 263 265
280 282 285 288 291 294 297 298 299 301 302 303 304 304 304 303 303 302 302 302 301 298 296 296 297 299 300 301 302 302 300 297 293 290 288 286 284 282 280 277 275 273 271 270 269 269 270 270 268 267 267 268 269 269 269 269 269 269 269 269 269 269 269 270 271 272 273 273 274 275 271 267 269 270 268 265 265 264 266 267 264 263 266 265 263 264 266
282 284 286 289 291 294 295 296 297 298 299 300 300 300 301 300 300 300 300 299 298 296 295 296 297 298 299 300 300 300 298 295 291 287 286 286 284 282 280 279 276 274 273 271 269 269 269 269 269 269 268 270 271 271 271 270 268 269 270 269 269 270 270 270 271 271 272 272 271 271 269 267 269 270 268 267 266 266 267 266 266 267 267 264 263 265 266
284 285 287 289 290 292 293 294 295 296 297 297 298 298 298 298 298 299 299 298 296 294 294 294 296 297 298 298 299 297 295 293 290 287 285 285 283 281 280 279 278 275 273 271 270 270 269 269 269 269 269 270 270 272 274 273 271 271 271 270 271 271 270 271 272 271 271 272 271 271 271 270 269 269 270 271 271 271 269 267 267 267 265 263 262 262 262
284 286 287 289 290 290 291 292 293 294 295 296 296 297 297 297 297 297 297 296 296 295 295 295 296 296 296 296 296 295 292 290 290 289 287 285 284 281 280 279 277 276 274 273 271 270 269 269 269 270 270 270 270 271 273 274 274 274 272 272 273 272 272 273 274 273 272 273 273 273 273 272 272 273 275 275 276 275 272 270 269 267 265 266 266 263 261
283 285 286 287 288 289 290 291 292 293 294 295 295 296 296 296 296 296 296 295 296 296 296 296 297 296 296 295 294 293 291 289 289 289 288 287 285 282 281 279 277 276 275 274 272 271 270 270 270 271 271 270 271 271 272 274 275 275 275 274 274 274 275 275 275 276 275 275 276 276 275 276 276 276 278 279 278 276 274 273 273 272 270 271 271 267 264
283 284 285 286 287 288 290 291 292 293 293 294 295 295 296 296 296 296 296 296 296 296 296 297 297 295 295 294 292 291 290 289 289 290 289 287 286 284 281 279 278 278 277 275 273 271 270 271 272 272 271 272 272 273 274 275 276 276 277 277 277 278 278 278 280 278 276 277 279 278 277 277 277 278 281 281 278 276 277 279 278 275 273 271 269 267 268
282 283 284 285 287 289 290 291 292 293 293 294 295 295 296 296 297 297 297 297 297 297 296 296 295 295 294 294 292 291 290 289 290 290 288 287 286 284 282 281 279 278 278 277 274 271 272 273 273 272 273 274 274 275 276 276 276 277 278 279 280 280 280 281 282 280 279 280 281 280 280 279 278 281 284 283 281 281 281 279 277 276 274 273 270 269 273
283 285 286 287 289 290 291 292 293 294 295 295 296 297 297 297 298 298 298 298 298 298 297 296 295 294 294 294 293 292 291 290 290 289 288 287 285 284 283 281 280 279 278 276 275 275 275 274 273 274 275 276 276 276 277 277 278 278 279 280 280 281 281 282 281 282 282 282 283 283 282 280 281 287 291 288 285 283 280 277 276 275 275 274 273 274 277
286 287 288 289 290 292 293 293 294 296 297 297 298 298 299 299 299 298 298 298 297 297 296 296 295 295 294 293 293 293 292 292 291 290 289 288 285 283 282 280 280 279 278 276 276 277 276 275 275 276 276 276 277 278 278 278 279 279 279 280 280 280 281 281 281 282 283 284 285 282 279 280 287 293 292 287 284 281 278 277 275 273 273 273 274 276 278
289 290 291 292 293 294 295 296 296 297 297 298 298 298 299 298 298 298 298 297 297 297 296 295 294 294 294 294 293 293 293 292 292 291 290 288 286 284 282 280 279 279 278 278 278 278 276 276 277 277 277 278 278 278 279 279 280 279 279 280 280 281 282 282 282 283 285 287 285 279 279 286 291 291 286 282 281 279 277 275 273 271 272 273 274 277 278
293 293 294 295 295 296 297 297 297 297 297 297 297 298 298 298 297 297 297 297 297 297 296 295 294 294 294 294 293 293 292 292 291 291 290 288 286 284 282 281 280 280 279 279 278 277 277 277 277 278 279 280 280 279 280 280 280 279 280 280 282 283 283 284 284 285 287 287 282 280 284 289 290 288 284 279 276 275 272 270 269 269 271 272 274 276 276
296 296 297 297 297 297 297 297 297 296 297 297 297 297 297 297 297 297 297 298 297 297 296 296 295 295 294 293 293 293 293 292 292 291 289 287 285 283 283 282 282 281 280 279 278 278 278 278 278 279 280 280 281 282 282 283 283 283 284 284 285 285 285 288 289 288 287 285 283 284 285 287 289 289 282 273 272 273 271 269 269 269 270 272 273 273 273
297 297 297 297 296 296 296 296 296 296 296 296 296 296 297 297 297 297 298 298 298 297 297 296 295 295 294 294 293 293 293 292 292 291 289 287 285 284 283 283 283 282 281 280 279 279 279 279 280 281 281 281 282 283 283 284 285 286 288 289 289 290 292 293 289 286 283 282 282 281 279 281 288 286 278 275 276 274 271 270 271 271 271 272 271 271 271
297 296 296 295 295 295 296 296 296 296 295 295 295 296 296 297 297 298 298 299 298 298 297 296 295 295 294 294 294 293 292 292 292 291 289 288 287 286 284 283 283 282 281 280 280 280 280 280 281 282 282 283 284 284 284 284 285 286 288 289 291 293 295 290 281 280 281 279 277 276 275 280 286 281 277 278 278 274 273 272 273 273 270 268 267 268 268
296 296 295 295 295 295 296 296 296 296 296 295 295 296 296 297 297 298 298 298 298 297 297 296 295 294 293 293 293 293 293 293 292 290 289 288 288 287 287 285 283 281 280 281 281 281 281 281 282 283 284 285 285 284 285 285 286 287 289 289 290 292 292 285 278 279 280 277 275 275 276 280 282 278 275 276 275 274 275 275 274 273 270 268 268 268 266
297 296 296 296 296 296 297 297 297 296 296 296 296 296 296 296 297 298 298 298 298 297 296 296 295 294 294 294 294 294 294 293 292 291 290 289 287 287 287 286 284 282 281 281 281 281 282 282 283 284 285 285 285 285 285 286 287 288 289 289 291 292 289 284 279 279 280 278 275 276 277 279 280 275 274 275 275 274 273 273 273 273 271 270 270 268 266
297 297 297 297 297 297 297 297 297 296 296 296 296 297 297 297 298 298 298 299 298 297 296 296 295 294 294 295 295 294 294 293 292 292 292 290 288 287 286 284 283 282 282 282 282 282 282 283 284 286 285 284 285 285 285 286 287 288 289 291 294 292 286 282 280 280 281 280 276 275 276 275 274 272 272 274 273 271 271 271 270 270 269 269 268 267 267
297 297 298 298 298 298 298 298 298 298 298 298 298 298 298 298 299 299 299 299 298 297 297 296 295 294 294 295 295 294 294 293 292 292 291 289 288 288 286 284 283 282 282 281 282 283 284 285 286 285 284 285 286 285 285 286 287 290 292 292 291 287 283 283 283 280 280 280 277 274 272 269 268 269 271 271 269 269 270 269 268 267 269 271 270 268 267
297 298 299 299 299 299 299 299 299 299 299 299 299 299 299 299 300 300 300 300 299 298 297 296 296 295 295 296 295 295 294 293 293 292 290 288 288 287 286 285 285 284 283 282 283 284 284 284 284 283 283 285 285 284 286 287 288 290 291 288 285 283 282 281 278 273 273 274 271 269 269 267 268 270 270 269 268 269 270 270 267 265 266 269 269 267 266
299 300 300 300 300 300 300 300 300 300 300 300 300 300 300 300 300 300 300 300 299 298 297 297 297 296 296 296 295 294 294 293 292 291 290 289 288 288 286 286 286 285 285 286 285 285 284 284 284 283 284 286 285 286 287 287 287 288 287 283 283 283 281 277 273 270 268 267 265 266 268 268 268 268 268 267 266 266 268 269 266 261 260 262 266 267 263
300 301 301 301 301 301 301 301 301 301 301 301 301 301 301 301 301 301 300 300 299 298 298 298 299 298 298 297 295 294 293 293 292 291 289 289 289 288 288 287 286 286 286 286 285 285 285 285 285 284 285 286 286 286 286 286 286 288 287 285 283 280 275 272 270 269 268 267 266 269 271 269 267 267 267 266 264 264 265 265 263 262 260 259 266 269 260
300 300 300 300 301 301 301 301 301 302 302 301 301 302 302 302 302 301 301 300 299 298 298 299 299 298 298 297 296 294 294 293 292 291 290 290 290 289 289 288 287 287 287 286 286 286 285 285 284 284 285 286 285 284 285 286 287 287 286 284 282 276 272 269 266 263 263 264 267 270 270 269 270 271 270 266 261 260 265 265 261 261 259 257 264 270 260
298 299 299 300 300 300 301 301 302 302 302 301 302 302 302 302 302 302 301 300 300 300 300 300 299 299 298 297 296 296 295 294 293 292 291 291 291 290 289 288 287 287 287 286 286 286 285 285 284 284 285 286 285 284 285 286 286 285 282 280 277 272 268 266 261 257 257 258 261 264 265 268 274 274 271 263 255 255 264 265 260 259 257 255 260 265 259
298 299 299 300 300 300 301 301 301 302 302 302 303 303 303 303 303 302 302 302 301 301 301 301 301 300 299 298 297 298 298 296 295 294 293 292 291 290 290 289 288 288 286 285 286 285 284 284 284 285 286 286 284 284 285 285 285 282 279 278 275 268 265 263 258 255 256 258 260 262 265 271 274 271 267 259 251 252 259 262 258 257 256 254 257 260 256
299 299 300 300 301 301 302 302 302 303 303 303 304 304 304 304 304 303 303 303 303 302 302 302 301 300 300 299 299 299 299 298 297 297 295 294 293 292 291 290 289 288 287 286 286 285 284 285 285 285 286 285 284 284 286 285 281 279 280 280 274 265 264 262 256 253 254 255 258 261 263 266 268 268 264 258 250 249 254 258 258 256 253 252 254 256 255
301 301 301 302 303 303 303 304 304 304 304 305 305 305 305 305 304 304 304 304 303 303 303 303 303 301 300 300 301 301 300 299 299 298 296 295 294 292 292 291 290 289 288 287 286 285 285 286 286 286 285 284 283 283 283 280 277 276 280 279 269 262 262 261 257 256 255 252 252 255 257 259 263 266 262 256 249 247 249 253 257 256 250 248 250 253 257
302 302 302 303 304 304 305 305 305 305 306 306 306 305 305 305 305 305 305 304 304 304 304 304 304 303 302 302 302 302 302 301 300 299 298 296 295 294 294 293 292 291 290 288 288 287 286 286 285 284 283 282 281 279 277 274 273 275 277 274 267 263 262 262 261 262 260 255 251 251 252 256 261 262 257 251 248 246 246 250 256 253 245 245 249 254 259
302 302 303 304 304 305 305 306 306 306 306 306 306 306 306 305 305 305 305 305 305 305 305 304 305 305 304 304 304 304 303 302 301 300 299 297 296 295 294 294 293 292 289 288 287 285 284 286 285 283 282 280 278 278 277 274 272 272 271 269 266 262 260 260 261 262 259 253 250 249 250 254 259 257 251 246 244 244 246 254 257 250 242 244 249 254 259
303 303 304 304 305 305 306 306 306 306 307 306 306 306 306 306 306 306 306 306 306 306 306 306 307 307 307 306 306 306 304 303 302 301 299 297 296 295 295 294 293 289 286 284 283 283 284 284 283 282 281 277 274 277 278 273 271 269 264 262 259 256 255 257 259 260 257 250 247 248 251 256 257 252 243 239 241 241 244 250 252 245 238 239 242 245 254
304 305 305 306 306 306 306 306 306 307 307 307 307 307 307 308 308 308 308 308 308 309 309 309 310 310 309 308 308 307 305 303 303 301 299 298 297 297 296 294 290 287 286 285 286 287 288 287 285 284 280 275 274 274 272 271 273 270 257 253 252 251 252 255 259 262 259 251 248 250 253 255 253 245 236 232 235 239 241 244 244 238 232 234 235 230 228
306 306 307 307 307 307 306 306 307 307 307 307 308 308 308 309 309 310 310 310 311 311 311 311 311 311 310 310 309 307 306 305 304 301 299 299 299 298 296 293 290 290 290 287 286 287 288 288 289 287 281 277 276 274 272 276 278 266 253 251 252 253 255 255 257 261 260 254 250 251 251 248 243 237 232 230 233 238 238 238 237 231 227 231 233 222 207
308 308 308 308 307 307 307 307 308 309 308 308 308 309 310 311 310 311 312 311 311 312 312 311 311 311 310 310 309 307 306 305 302 300 299 299 297 295 293 292 292 292 291 287 284 282 281 281 285 286 283 278 275 273 275 274 263 252 250 251 251 254 258 257 254 252 249 246 247 250 248 241 235 231 228 229 234 238 235 234 234 229 226 230 229 212 200
309 308 309 309 309 309 309 309 309 309 308 309 310 311 311 311 311 312 312 312 313 313 313 312 312 312 311 312 311 309 308 306 303 302 301 300 298 295 292 291 292 290 287 285 283 280 277 276 277 280 280 276 272 271 271 259 248 246 248 248 248 251 250 246 243 242 241 243 247 250 247 238 231 226 223 225 231 234 232 232 233 230 229 230 217 195 191
310 310 310 310 310 311 311 311 311 311 311 311 312 312 311 311 312 313 314 314 314 315 314 314 314 314 313 313 312 310 310 308 305 305 303 299 297 296 292 290 291 288 285 283 282 277 273 273 276 278 277 273 269 266 259 251 249 248 247 247 248 247 242 239 239 242 245 250 255 255 247 234 224 220 221 223 226 227 227 229 232 232 229 224 202 184 188
311 311 311 312 312 312 312 312 311 311 311 311 311 311 312 313 314 315 315 315 316 316 315 316 316 314 313 313 312 311 310 308 306 305 302 297 296 296 293 292 293 290 285 283 279 270 261 263 274 278 272 262 257 254 249 248 249 247 245 243 241 238 236 237 239 242 249 254 256 253 243 230 221 220 222 223 224 226 226 227 231 231 225 215 201 192 200
313 313 313 313 313 312 312 311 311 310 310 311 312 313 314 315 316 317 318 318 318 318 318 318 317 314 313 313 312 310 309 308 306 304 303 299 297 296 295 293 292 291 287 280 272 262 256 262 274 274 260 248 244 241 242 251 254 247 242 238 237 235 234 235 239 244 245 243 242 241 236 228 222 220 221 224 228 230 228 226 228 226 216 205 199 195 203
314 314 314 313 313 312 312 312 312 312 312 314 315 315 317 318 319 320 321 320 320 320 319 319 317 315 312 313 312 309 308 308 307 305 302 300 297 296 295 292 288 288 285 271 254 251 262 270 267 252 239 237 239 239 243 249 246 238 236 239 244 244 237 236 245 251 246 240 241 242 237 229 223 220 220 223 228 230 227 225 226 224 214 204 198 194 200
314 314 313 313 312 312 312 312 313 314 315 316 316 317 319 320 321 322 322 321 321 321 320 318 317 315 313 312 312 310 308 309 309 306 302 298 296 297 297 292 285 284 277 253 240 245 257 258 244 225 218 223 245 264 263 250 232 226 233 245 250 244 236 240 248 249 246 244 244 239 231 224 218 216 217 221 227 230 230 226 225 225 219 207 198 194 196
313 313 312 312 312 311 311 312 314 315 316 317 317 319 321 322 323 323 323 322 322 321 319 317 317 316 313 313 314 312 310 310 311 308 302 297 297 299 297 286 276 265 239 242 255 260 251 234 220 213 215 227 257 275 267 245 231 230 238 245 244 236 234 237 237 237 240 238 229 221 217 214 213 215 218 222 228 232 231 228 225 224 216 207 202 201 201
311 311 311 310 310 310 311 313 314 316 317 318 320 322 323 324 324 324 324 323 323 322 319 319 319 317 315 315 315 313 312 313 312 307 301 298 300 301 291 262 244 232 222 240 270 268 241 216 206 212 229 250 272 269 238 233 236 236 235 235 233 228 225 222 219 221 225 216 205 202 205 207 211 219 225 228 232 237 238 234 229 223 213 206 204 204 203
311 312 312 311 311 312 312 314 317 318 319 321 323 325 325 325 326 325 324 324 324 323 321 321 321 319 318 318 316 312 313 315 313 305 299 297 298 296 267 219 213 224 232 238 246 239 221 207 203 222 252 273 280 208 214 227 231 232 233 232 222 209 198 196 201 211 215 197 188 191 198 202 207 217 225 228 231 237 241 239 232 222 211 205 203 202 203
312 313 313 313 313 314 315 317 319 321 322 324 326 326 326 326 327 326 325 325 324 323 321 321 320 319 318 317 315 313 314 318 315 307 301 295 288 274 229 212 219 235 246 238 219 205 209 208 209 233 280 293 213 208 231 238 234 233 230 213 192 179 173 177 190 208 221 189 179 181 190 194 193 200 216 227 228 228 230 232 225 214 205 202 201 204 209
314 314 315 315 316 317 318 319 321 322 324 326 327 327 327 327 326 326 326 325 323 322 321 320 320 320 318 316 315 314 314 315 313 309 303 287 255 224 212 224 241 252 250 230 208 201 206 210 210 220 279 244 214 224 241 248 238 215 188 170 167 170 174 182 197 226 262 198 183 176 175 176 174 177 185 192 189 182 181 193 204 205 202 203 206 211 215
315 316 316 317 318 319 320 321 322 324 326 327 328 328 328 327 326 326 326 325 323 322 322 322 319 317 315 314 314 313 312 312 310 302 275 228 217 215 214 225 247 254 243 230 222 213 207 205 201 183 160 167 179 194 194 186 181 179 174 172 176 182 183 186 188 105 103 118 130 146 160 168 169 163 156 146 134 123 122 136 161 177 185 193 201 207 211
317 317 318 319 320 321 321 322 324 325 327 328 329 328 327 327 327 326 326 325 322 322 323 321 316 312 312 312 311 309 307 307 303 278 227 211 220 223 219 225 246 252 242 233 226 213 204 197 184 158 147 151 155 164 173 174 177 185 193 192 184 183 185 181 155 125 125 123 119 127 148 159 155 151 150 146 142 139 139 144 151 159 170 182 190 194 199
319 319 319 320 322 322 323 324 325 326 327 328 329 328 327 327 327 327 326 325 324 323 322 318 312 310 310 310 307 305 305 301 286 243 220 221 227 227 226 238 258 265 255 239 220 207 197 186 168 151 153 162 169 175 182 189 191 190 185 173 169 176 183 180 158 141 136 132 125 125 136 146 144 141 142 146 154 166 174 171 167 167 173 185 195 202 210
320 320 321 322 323 323 323 325 326 327 327 328 328 328 328 327 327 327 327 326 324 323 321 317 311 307 307 304 301 301 301 293 264 230 223 227 230 232 238 249 258 262 261 244 215 198 188 177 164 160 167 174 175 177 185 196 200 190 175 174 184 189 187 186 182 170 156 149 146 145 148 151 154 151 143 136 136 145 165 182 184 181 180 186 200 214 223
320 320 321 323 323 323 323 325 326 328 328 328 328 327 327 327 327 328 328 326 323 321 319 315 309 304 301 297 293 293 292 279 250 229 225 230 235 239 246 256 257 255 255 244 200 184 181 178 174 173 175 178 182 184 187 194 203 208 207 204 201 195 189 188 189 185 180 183 194 201 205 210 208 204 207 211 191 164 162 173 180 180 182 190 205 224 238
321 321 322 323 324 323 324 325 326 328 329 328 327 326 327 327 326 326 327 326 323 319 315 309 303 300 296 293 290 288 283 266 241 225 224 232 238 241 248 259 260 255 251 231 167 158 166 174 177 176 178 182 187 193 197 203 212 218 214 206 200 197 198 200 202 204 208 216 225 233 240 247 251 252 252 255 256 256 254 247 231 213 203 200 202 213 229
321 321 322 323 323 323 324 325 327 328 329 329 327 325 325 325 324 325 326 325 322 317 311 305 299 295 292 290 289 285 275 253 229 220 222 228 234 240 250 255 248 241 237 207 163 154 162 175 178 176 182 190 196 201 208 216 218 212 203 197 196 199 202 204 208 216 225 234 241 246 250 255 262 268 272 272 271 270 269 266 263 257 248 237 228 223 225
Height
5729 5729 5728 5727 5727 5726 5725 5724 5723 5722 5721 5720 5719 5718 5717 5716 5715 5713 5712 5711 5710 5709 5707 5706 5705 5704 5702 5700 5698 5697 5695 5693 5691 5690 5690 5689 5688 5688 5687 5686 5686 5685 5684 5685 5684 5683 5682 5683 5683 5682 5681 5679 5678 5678 5678 5679 5678 5678 5677 5676 5675 5676 5675 5674 5674 5675 5676 5677 5677 5677 5677 5675 5674 5674 5675 5674 5673 5674 5672 5668 5669 5668 5667 5670 5668 5662 5670
5727 5726 5726 5725 5724 5723 5722 5721 5720 5719 5718 5717 5716 5715 5713 5712 5711 5710 5709 5707 5706 5705 5703 5702 5701 5700 5698 5696 5694 5693 5691 5689 5688 5686 5685 5684 5683 5683 5682 5681 5681 5680 5680 5680 5679 5678 5677 5677 5677 5677 5676 5674 5673 5673 5673 5673 5673 5672 5672 5671 5670 5671 5670 5669 5669 5669 5670 5672 5672 5671 5670 5667 5666 5667 5668 5667 5667 5667 5664 5663 5663 5660 5661 5665 5660 5655 5663
5724 5723 5723 5722 5721 5720 5719 5718 5717 5716 5715 5714 5713 5711 5710 5708 5707 5706 5705 5703 5702 5701 5699 5697 5696 5694 5693 5692 5690 5688 5687 5685 5684 5682 5680 5680 5679 5678 5677 5677 5676 5675 5675 5674 5674 5673 5672 5671 5671 5671 5670 5669 5668 5667 5666 5668 5668 5665 5666 5666 5664 5664 5664 5664 5663 5664 5665 5667 5667 5666 5663 5659 5658 5660 5662 5662 5662 5660 5658 5658 5656 5654 5656 5658 5652 5649 5655
5721 5720 5720 5719 5718 5717 5716 5715 5714 5713 5711 5710 5709 5707 5706 5704 5703 5701 5700 5699 5698 5697 5695 5693 5691 5690 5688 5687 5686 5684 5682 5680 5680 5679 5676 5675 5675 5673 5672 5671 5671 5670 5669 5669 5669 5668 5667 5666 5665 5665 5665 5664 5663 5661 5660 5662 5662 5660 5660 5659 5657 5658 5658 5658 5657 5658 5659 5661 5661 5659 5655 5653 5652 5653 5654 5655 5655 5654 5653 5651 5649 5649 5649 5647 5647 5646 5646
5718 5717 5716 5715 5714 5713 5712 5711 5710 5708 5707 5706 5704 5703 5701 5700 5698 5697 5695 5694 5693 5692 5691 5689 5687 5685 5684 5682 5681 5680 5677 5675 5674 5674 5673 5671 5670 5669 5667 5667 5666 5665 5664 5664 5663 5663 5662 5660 5660 5659 5659 5659 5657 5655 5654 5654 5654 5654 5654 5652 5651 5651 5652 5651 5650 5651 5653 5654 5653 5651 5647 5645 5645 5646 5647 5649 5648 5647 5646 5642 5642 5643 5637 5634 5641 5642 5636
5714 5713 5712 5711 5710 5709 5708 5707 5706 5704 5702 5701 5699 5698 5697 5695 5693 5692 5691 5689 5688 5686 5685 5684 5683 5681 5679 5677 5676 5675 5673 5671 5669 5669 5668 5666 5665 5664 5663 5662 5661 5659 5659 5658 5657 5657 5656 5655 5654 5654 5653 5653 5652 5651 5650 5648 5648 5648 5647 5646 5645 5644 5645 5645 5643 5644 5647 5647 5645 5643 5639 5637 5637 5639 5640 5642 5641 5639 5636 5633 5634 5634 5628 5626 5633 5634 5629
5710 5709 5708 5707 5706 5704 5703 5702 5701 5699 5698 5696 5694 5693 5692 5690 5688 5687 5686 5685 5683 5682 5680 5679 5677 5675 5674 5672 5670 5669 5668 5666 5664 5663 5662 5661 5660 5658 5657 5657 5655 5654 5654 5653 5652 5651 5650 5649 5649 5648 5647 5646 5646 5645 5644 5643 5642 5641 5640 5640 5639 5637 5638 5637 5635 5636 5639 5639 5637 5635 5632 5630 5630 5631 5634 5635 5632 5628 5625 5624 5626 5625 5622 5620 5623 5622 5622
5706 5705 5704 5703 5701 5700 5698 5697 5696 5694 5693 5691 5690 5688 5686 5685 5683 5682 5681 5679 5679 5677 5675 5674 5672 5669 5668 5667 5665 5664 5662 5661 5659 5658 5657 5655 5654 5653 5652 5651 5650 5648 5648 5647 5646 5645 5644 5644 5643 5642 5641 5640 5640 5640 5639 5638 5637 5636 5634 5633 5632 5631 5631 5629 5628 5629 5632 5632 5629 5626 5626 5624 5622 5625 5628 5626 5622 5619 5618 5618 5618 5616 5613 5614 5613 5610 5611
5701 5700 5699 5698 5697 5695 5694 5692 5691 5689 5688 5686 5685 5683 5682 5680 5678 5677 5676 5674 5673 5671 5670 5669 5667 5664 5662 5661 5660 5659 5657 5656 5654 5653 5651 5650 5649 5647 5646 5646 5644 5643 5642 5641 5640 5638 5639 5639 5637 5635 5635 5635 5634 5634 5633 5632 5631 5630 5629 5627 5626 5625 5624 5623 5620 5619 5624 5626 5620 5616 5618 5616 5614 5619 5621 5618 5614 5613 5612 5611 5609 5607 5605 5605 5604 5601 5603
5697 5696 5694 5693 5692 5690 5689 5687 5686 5684 5683 5681 5680 5678 5677 5675 5674 5672 5670 5668 5667 5666 5664 5662 5661 5659 5657 5656 5654 5653 5652 5650 5649 5648 5646 5645 5644 5642 5641 5640 5638 5637 5637 5635 5633 5633 5634 5633 5631 5630 5630 5629 5628 5628 5627 5626 5625 5624 5623 5621 5620 5618 5617 5617 5614 5611 5615 5618 5612 5609 5610 5606 5607 5614 5614 5609 5607 5605 5603 5602 5601 5600 5599 5596 5595 5595 5598
5692 5691 5689 5688 5687 5685 5684 5683 5681 5680 5678 5677 5675 5673 5672 5670 5669 5667 5665 5663 5662 5661 5659 5657 5655 5654 5652 5651 5649 5647 5646 5644 5643 5642 5641 5640 5638 5636 5635 5634 5632 5632 5631 5629 5628 5628 5628 5626 5625 5625 5624 5623 5623 5622 5620 5620 5619 5618 5616 5615 5614 5612 5611 5611 5608 5604 5607 5610 5606 5602 5599 5597 5603 5609 5605 5599 5598 5597 5595 5595 5595 5594 5593 5590 5589 5589 5592
5687 5686 5685 5683 5682 5681 5679 5678 5677 5675 5674 5672 5670 5669 5667 5665 5663 5662 5660 5658 5656 5655 5654 5652 5650 5648 5647 5645 5644 5642 5641 5639 5637 5636 5635 5634 5632 5630 5629 5628 5627 5626 5625 5623 5623 5623 5621 5620 5619 5619 5618 5617 5617 5615 5614 5614 5613 5611 5610 5608 5607 5606 5605 5604 5602 5599 5599 5601 5599 5592 5589 5591 5597 5599 5596 5592 5591 5590 5588 5587 5588 5589 5587 5584 5583 5583 5585
5683 5681 5680 5679 5677 5676 5674 5673 5672 5670 5669 5667 5666 5664 5662 5660 5658 5656 5655 5653 5651 5650 5648 5646 5644 5643 5642 5640 5638 5637 5635 5633 5632 5631 5630 5628 5626 5624 5623 5621 5621 5620 5619 5618 5618 5616 5615 5615 5613 5612 5612 5611 5609 5609 5608 5607 5606 5604 5604 5602 5601 5600 5599 5597 5596 5593 5592 5592 5589 5583 5581 5585 5588 5588 5588 5586 5584 5584 5582 5580 5581 5584 5581 5578 5577 5577 5577
5678 5677 5675 5674 5672 5671 5669 5668 5666 5665 5664 5662 5660 5659 5657 5655 5653 5651 5649 5648 5646 5644 5643 5641 5638 5637 5636 5635 5633 5631 5630 5628 5627 5625 5623 5622 5621 5618 5617 5616 5615 5614 5613 5612 5611 5610 5609 5608 5607 5607 5606 5605 5603 5602 5601 5600 5598 5597 5596 5596 5595 5594 5593 5591 5589 5587 5585 5582 5580 5577 5575 5577 5580 5580 5580 5579 5577 5576 5574 5572 5575 5578 5575 5571 5571 5570 5570
5673 5672 5670 5669 5667 5666 5664 5662 5661 5659 5658 5656 5655 5653 5652 5649 5648 5645 5644 5642 5640 5638 5638 5636 5633 5631 5630 5629 5628 5626 5624 5622 5621 5619 5617 5615 5614 5613 5611 5610 5609 5608 5607 5606 5605 5604 5603 5602 5601 5601 5600 5598 5597 5596 5595 5594 5592 5591 5589 5589 5588 5587 5586 5585 5581 5580 5579 5576 5573 5573 5570 5570 5575 5574 5570 5571 5571 5569 5567 5565 5567 5572 5569 5565 5564 5563 5563
5668 5667 5665 5664 5662 5661 5659 5657 5655 5654 5652 5651 5649 5648 5646 5644 5642 5640 5638 5636 5634 5632 5631 5630 5628 5626 5624 5623 5622 5620 5618 5617 5615 5613 5611 5609 5607 5606 5606 5605 5603 5602 5600 5599 5598 5597 5596 5595 5595 5594 5593 5592 5591 5589 5588 5588 5586 5586 5585 5583 5582 5581 5581 5580 5575 5573 5574 5572 5568 5567 5564 5565 5571 5568 5562 5564 5565 5562 5560 5560 5561 5563 5562 5558 5557 5558 5558
5663 5661 5660 5658 5657 5655 5654 5652 5650 5648 5647 5645 5643 5642 5640 5638 5637 5635 5632 5630 5628 5626 5625 5624 5622 5620 5618 5617 5615 5614 5612 5611 5609 5607 5605 5603 5601 5600 5599 5598 5598 5596 5594 5593 5592 5591 5590 5589 5588 5587 5587 5586 5584 5582 5581 5580 5579 5579 5579 5577 5577 5577 5576 5575 5571 5568 5568 5567 5563 5561 5559 5560 5564 5561 5556 5557 5559 5557 5555 5554 5555 5556 5554 5552 5552 5553 5552
5658 5656 5655 5653 5651 5650 5648 5646 5644 5642 5641 5639 5638 5636 5634 5633 5631 5629 5627 5624 5622 5620 5619 5618 5616 5614 5612 5611 5609 5608 5606 5604 5602 5600 5599 5598 5596 5595 5593 5592 5591 5590 5588 5588 5586 5585 5584 5583 5581 5581 5580 5579 5577 5575 5575 5573 5572 5573 5572 5570 5570 5571 5570 5568 5565 5562 5562 5561 5557 5555 5554 5555 5556 5554 5551 5551 5551 5550 5550 5549 5549 5549 5548 5546 5546 5547 5546
5653 5651 5649 5647 5646 5644 5642 5640 5638 5636 5635 5633 5632 5630 5628 5627 5625 5623 5621 5619 5616 5614 5613 5612 5610 5608 5606 5605 5603 5601 5600 5598 5596 5594 5593 5591 5590 5589 5588 5586 5585 5584 5583 5581 5580 5579 5578 5577 5575 5574 5573 5571 5570 5568 5568 5567 5566 5567 5566 5564 5564 5563 5561 5560 5558 5555 5554 5554 5552 5549 5548 5548 5548 5547 5546 5546 5545 5544 5544 5544 5543 5543 5542 5541 5541 5541 5541
5647 5645 5644 5642 5640 5638 5636 5634 5633 5631 5629 5627 5626 5624 5622 5621 5619 5617 5615 5613 5611 5608 5606 5606 5604 5602 5600 5599 5598 5595 5593 5592 5590 5589 5587 5585 5583 5583 5582 5580 5578 5578 5577 5575 5574 5573 5571 5570 5569 5567 5565 5565 5564 5561 5561 5561 5560 5560 5560 5558 5557 5556 5552 5552 5553 5550 5546 5545 5546 5543 5542 5541 5541 5540 5540 5540 5539 5539 5539 5538 5538 5538 5538 5537 5537 5537 5537
5642 5640 5638 5636 5634 5632 5631 5629 5627 5625 5623 5622 5620 5619 5617 5615 5614 5611 5609 5607 5605 5602 5599 5599 5598 5596 5595 5593 5592 5589 5587 5585 5583 5582 5581 5579 5578 5577 5576 5574 5572 5571 5570 5569 5568 5567 5565 5564 5563 5560 5558 5559 5557 5555 5554 5553 5553 5555 5554 5550 5549 5548 5545 5545 5546 5545 5540 5538 5539 5538 5536 5535 5535 5534 5534 5534 5534 5534 5533 5533 5533 5533 5533 5532 5532 5532 5533
5637 5635 5633 5631 5629 5627 5625 5623 5622 5620 5618 5616 5615 5613 5611 5610 5608 5606 5604 5602 5599 5596 5593 5592 5591 5590 5589 5588 5586 5583 5581 5579 5578 5576 5575 5573 5572 5571 5570 5568 5566 5564 5563 5562 5561 5560 5558 5557 5555 5553 5552 5552 5549 5548 5547 5545 5545 5547 5547 5543 5540 5540 5539 5537 5537 5536 5534 5532 5532 5533 5531 5530 5530 5529 5528 5529 5530 5529 5529 5528 5528 5528 5527 5527 5527 5527 5528
5631 5630 5628 5626 5624 5622 5620 5618 5616 5615 5613 5611 5609 5607 5605 5604 5602 5600 5598 5596 5594 5591 5588 5586 5585 5583 5582 5581 5580 5577 5575 5574 5572 5571 5569 5567 5566 5565 5564 5562 5560 5558 5557 5555 5554 5553 5551 5550 5548 5545 5545 5545 5542 5540 5540 5537 5536 5537 5537 5535 5533 5532 5532 5530 5528 5528 5527 5525 5526 5527 5526 5525 5525 5524 5524 5524 5524 5524 5522 5522 5524 5524 5523 5524 5524 5522 5522
5626 5625 5623 5621 5619 5617 5615 5613 5611 5609 5607 5605 5604 5602 5600 5598 5596 5594 5592 5590 5588 5586 5583 5581 5579 5577 5575 5574 5573 5571 5570 5568 5567 5565 5563 5561 5560 5559 5557 5556 5553 5552 5550 5548 5547 5546 5543 5543 5541 5537 5537 5539 5536 5532 5531 5530 5529 5529 5527 5526 5527 5525 5523 5522 5521 5521 5520 5520 5521 5522 5521 5520 5520 5519 5519 5520 5520 5519 5518 5518 5520 5520 5519 5520 5520 5519 5519
5621 5620 5618 5616 5614 5612 5609 5608 5606 5604 5602 5600 5598 5596 5594 5592 5590 5588 5585 5583 5582 5580 5577 5575 5573 5572 5570 5568 5566 5565 5564 5563 5561 5559 5558 5556 5554 5552 5551 5549 5547 5546 5544 5541 5540 5538 5535 5535 5533 5529 5529 5531 5528 5524 5523 5521 5521 5520 5518 5518 5520 5519 5515 5514 5514 5514 5513 5514 5516 5516 5515 5515 5515 5515 5515 5514 5514 5514 5515 5515 5516 5516 5516 5517 5517 5516 5516
5616 5614 5612 5610 5608 5606 5604 5602 5600 5598 5596 5594 5592 5590 5588 5586 5584 5582 5580 5577 5575 5574 5572 5569 5567 5566 5564 5562 5560 5559 5558 5556 5554 5553 5551 5550 5548 5546 5544 5542 5540 5539 5537 5534 5532 5531 5528 5527 5525 5522 5522 5522 5519 5516 5515 5514 5512 5511 5510 5510 5512 5510 5508 5509 5509 5508 5508 5509 5511 5511 5510 5511 5511 5511 5510 5509 5509 5510 5510 5511 5512 5512 5512 5513 5513 5512 5513
5611 5609 5607 5605 5603 5601 5599 5597 5595 5593 5591 5589 5587 5585 5582 5580 5578 5576 5574 5572 5570 5568 5566 5565 5563 5560 5558 5556 5554 5553 5552 5549 5548 5546 5544 5542 5540 5538 5536 5535 5533 5531 5529 5526 5524 5522 5519 5518 5517 5515 5514 5513 5511 5508 5508 5506 5504 5503 5503 5504 5505 5503 5502 5504 5503 5502 5504 5505 5506 5506 5506 5506 5507 5507 5505 5504 5505 5506 5506 5506 5507 5508 5508 5509 5509 5510 5510
5606 5604 5602 5600 5598 5596 5594 5592 5589 5587 5585 5583 5581 5579 5577 5575 5573 5570 5568 5566 5564 5562 5561 5559 5558 5555 5553 5550 5549 5547 5545 5543 5541 5540 5537 5535 5533 5530 5528 5527 5525 5523 5521 5519 5516 5514 5512 5511 5510 5508 5505 5504 5502 5502 5501 5499 5497 5497 5498 5499 5498 5496 5497 5498 5497 5497 5499 5500 5500 5501 5501 5501 5503 5503 5501 5500 5501 5501 5502 5503 5503 5503 5504 5505 5506 5507 5507
5601 5599 5596 5594 5592 5590 5588 5586 5584 5582 5580 5578 5576 5574 5572 5570 5567 5565 5563 5561 5559 5557 5555 5554 5553 5551 5548 5545 5543 5541 5539 5537 5534 5532 5530 5527 5525 5522 5519 5518 5517 5514 5512 5510 5508 5506 5504 5504 5503 5501 5499 5496 5494 5494 5495 5493 5491 5492 5494 5494 5492 5491 5492 5493 5493 5493 5494 5495 5495 5496 5496 5497 5498 5498 5497 5497 5497 5497 5498 5500 5499 5499 5500 5502 5503 5504 5503
5595 5593 5591 5589 5587 5585 5583 5581 5579 5577 5575 5573 5571 5569 5567 5565 5563 5561 5558 5556 5554 5552 5549 5548 5547 5545 5543 5540 5538 5535 5532 5529 5527 5524 5522 5519 5516 5514 5511 5510 5509 5507 5504 5502 5500 5499 5498 5497 5496 5494 5493 5491 5488 5488 5489 5487 5486 5488 5489 5489 5488 5488 5488 5488 5489 5489 5490 5490 5491 5491 5492 5493 5494 5493 5493 5493 5494 5495 5497 5498 5497 5496 5498 5499 5500 5501 5501
5590 5588 5586 5584 5582 5580 5578 5576 5574 5572 5570 5568 5566 5564 5562 5560 5558 5556 5554 5552 5549 5547 5544 5542 5541 5539 5536 5534 5531 5528 5525 5521 5519 5516 5513 5510 5508 5506 5504 5502 5501 5500 5498 5496 5494 5493 5493 5492 5490 5488 5488 5486 5483 5483 5483 5482 5482 5484 5485 5484 5483 5484 5484 5483 5484 5485 5485 5486 5487 5487 5489 5489 5489 5489 5490 5490 5491 5492 5494 5494 5494 5494 5496 5497 5498 5498 5498
5585 5583 5581 5579 5577 5575 5573 5571 5569 5568 5565 5563 5561 5559 5557 5555 5553 5551 5549 5547 5544 5542 5539 5536 5534 5532 5529 5527 5524 5521 5517 5513 5510 5507 5505 5502 5500 5498 5497 5496 5494 5493 5492 5491 5489 5487 5486 5485 5484 5484 5483 5481 5479 5478 5478 5477 5479 5481 5481 5479 5479 5480 5480 5480 5480 5480 5481 5482 5483 5484 5485 5486 5486 5486 5486 5487 5488 5489 5489 5490 5491 5492 5493 5495 5495 5496 5497
5580 5578 5576 5575 5573 5571 5569 5567 5565 5563 5561 5559 5557 5555 5553 5551 5549 5546 5544 5542 5539 5537 5534 5531 5528 5525 5522 5520 5517 5513 5509 5506 5502 5499 5496 5495 5494 5493 5491 5489 5488 5487 5486 5485 5484 5483 5481 5479 5479 5479 5479 5477 5475 5474 5474 5475 5476 5476 5475 5475 5476 5477 5477 5477 5477 5477 5478 5479 5480 5480 5482 5482 5482 5482 5483 5484 5485 5485 5486 5487 5489 5490 5491 5492 5493 5494 5495
5576 5574 5572 5570 5568 5566 5564 5562 5560 5558 5556 5555 5553 5551 5549 5547 5544 5542 5540 5537 5534 5532 5529 5525 5522 5519 5515 5513 5510 5506 5502 5499 5496 5492 5490 5489 5488 5487 5485 5483 5481 5480 5480 5479 5478 5477 5477 5476 5475 5475 5475 5474 5472 5471 5471 5472 5472 5471 5471 5473 5473 5473 5474 5475 5475 5475 5475 5475 5476 5477 5478 5478 5478 5479 5481 5482 5483 5484 5485 5486 5487 5488 5489 5490 5491 5492 5493
5571 5570 5568 5566 5564 5562 5560 5558 5556 5554 5552 5550 5548 5546 5544 5542 5540 5538 5535 5532 5529 5526 5522 5519 5516 5512 5508 5505 5502 5499 5495 5493 5490 5487 5485 5483 5481 5481 5479 5477 5476 5475 5474 5473 5473 5472 5473 5473 5472 5471 5471 5470 5469 5468 5469 5469 5469 5468 5469 5470 5470 5470 5471 5472 5472 5472 5472 5472 5472 5474 5475 5476 5476 5477 5479 5480 5481 5482 5483 5484 5485 5485 5487 5488 5490 5491 5492
5567 5565 5563 5561 5559 5557 5555 5553 5551 5549 5547 5546 5544 5542 5540 5537 5535 5533 5530 5527 5524 5521 5517 5512 5509 5505 5501 5498 5495 5492 5490 5487 5485 5483 5481 5479 5476 5475 5473 5472 5471 5470 5469 5468 5468 5468 5469 5468 5467 5467 5467 5467 5466 5467 5467 5467 5467 5468 5468 5467 5467 5468 5469 5469 5469 5470 5470 5470 5470 5471 5472 5473 5474 5475 5476 5477 5479 5480 5481 5482 5482 5483 5485 5486 5488 5489 5491
5563 5561 5559 5557 5555 5553 5552 5550 5548 5546 5543 5541 5539 5537 5535 5533 5530 5528 5525 5522 5519 5515 5511 5507 5503 5499 5495 5492 5489 5486 5485 5483 5480 5478 5477 5474 5472 5470 5469 5467 5466 5465 5464 5464 5464 5464 5464 5464 5463 5464 5464 5464 5464 5464 5465 5465 5466 5466 5466 5465 5466 5466 5467 5467 5467 5467 5468 5468 5469 5469 5470 5470 5471 5472 5473 5475 5477 5478 5479 5479 5480 5481 5483 5484 5486 5487 5489
5559 5557 5555 5553 5551 5549 5548 5546 5544 5542 5540 5538 5535 5533 5530 5528 5525 5522 5519 5515 5512 5508 5505 5502 5498 5493 5490 5488 5485 5482 5480 5479 5476 5474 5472 5470 5467 5466 5464 5462 5461 5460 5460 5461 5460 5460 5461 5461 5461 5462 5462 5462 5462 5462 5463 5463 5464 5464 5464 5464 5465 5465 5465 5466 5465 5465 5465 5465 5466 5466 5466 5467 5468 5470 5472 5473 5475 5476 5477 5478 5478 5479 5481 5483 5484 5485 5487
5555 5553 5551 5549 5547 5545 5543 5542 5540 5537 5535 5533 5531 5528 5525 5523 5520 5516 5513 5509 5505 5502 5499 5496 5493 5489 5485 5484 5482 5478 5475 5473 5472 5470 5467 5465 5463 5461 5461 5459 5457 5457 5457 5458 5458 5458 5458 5459 5460 5460 5460 5460 5460 5460 5461 5461 5462 5463 5463 5463 5464 5464 5464 5465 5464 5463 5463 5463 5463 5464 5464 5465 5467 5469 5470 5472 5473 5474 5475 5476 5477 5478 5480 5481 5483 5484 5485
5551 5549 5547 5545 5543 5541 5539 5537 5535 5533 5531 5528 5526 5523 5521 5517 5514 5511 5508 5504 5500 5497 5493 5490 5487 5484 5481 5479 5477 5474 5471 5468 5467 5465 5463 5461 5459 5457 5457 5456 5455 5455 5455 5455 5456 5456 5457 5458 5458 5458 5458 5458 5459 5459 5458 5459 5460 5461 5462 5462 5462 5463 5463 5463 5463 5462 5462 5462 5462 5463 5463 5464 5466 5467 5469 5471 5472 5472 5473 5475 5476 5477 5478 5480 5481 5483 5484
5547 5545 5543 5541 5539 5537 5536 5533 5532 5529 5527 5524 5522 5519 5516 5513 5509 5506 5503 5499 5495 5492 5488 5485 5482 5480 5477 5474 5472 5470 5467 5465 5463 5461 5459 5458 5456 5455 5454 5454 5454 5454 5454 5455 5455 5455 5455 5456 5457 5457 5457 5457 5457 5457 5457 5457 5458 5459 5460 5461 5461 5461 5462 5462 5461 5461 5461 5461 5461 5462 5463 5464 5465 5467 5468 5469 5470 5471 5472 5473 5474 5475 5477 5478 5480 5481 5483
5544 5542 5540 5538 5536 5534 5532 5530 5528 5525 5523 5520 5517 5514 5511 5508 5504 5500 5497 5493 5490 5487 5484 5480 5478 5476 5473 5470 5468 5465 5463 5462 5460 5457 5456 5455 5454 5453 5452 5452 5453 5453 5454 5454 5454 5454 5455 5455 5456 5456 5456 5456 5456 5456 5456 5457 5457 5458 5459 5459 5460 5460 5461 5461 5461 5461 5461 5461 5461 5462 5463 5464 5465 5466 5467 5468 5469 5470 5471 5472 5472 5473 5475 5477 5478 5480 5482
5539 5537 5536 5534 5532 5530 5528 5526 5524 5521 5518 5515 5513 5509 5506 5503 5500 5496 5492 5488 5485 5482 5479 5476 5474 5471 5468 5466 5464 5462 5460 5459 5457 5455 5453 5452 5452 5451 5451 5451 5452 5452 5453 5453 5452 5453 5454 5455 5455 5455 5455 5455 5455 5455 5455 5456 5456 5457 5458 5458 5459 5459 5460 5460 5461 5461 5461 5461 5461 5462 5462 5463 5464 5465 5466 5467 5468 5469 5469 5470 5471 5472 5473 5475 5476 5478 5480
5535 5533 5532 5530 5528 5526 5524 5521 5520 5517 5514 5511 5508 5505 5501 5498 5494 5491 5487 5484 5481 5477 5474 5472 5470 5468 5465 5463 5461 5459 5457 5455 5454 5453 5451 5450 5450 5450 5450 5451 5451 5451 5452 5452 5452 5452 5453 5454 5454 5454 5454 5454 5454 5455 5455 5455 5456 5456 5457 5457 5458 5459 5459 5459 5460 5461 5461 5461 5461 5462 5462 5463 5464 5464 5465 5466 5467 5468 5468 5469 5470 5470 5472 5473 5475 5477 5478
5531 5530 5528 5526 5524 5522 5519 5517 5515 5513 5510 5507 5504 5501 5497 5494 5490 5486 5483 5480 5477 5474 5471 5468 5466 5464 5462 5460 5458 5457 5455 5453 5452 5451 5450 5449 5449 5449 5450 5451 5451 5451 5451 5451 5452 5452 5452 5452 5452 5452 5453 5453 5454 5454 5454 5455 5455 5455 5456 5457 5458 5459 5459 5459 5460 5461 5461 5461 5461 5462 5462 5463 5463 5464 5464 5465 5466 5467 5467 5468 5469 5470 5471 5473 5475 5476 5477
5528 5526 5524 5522 5520 5518 5515 5513 5511 5508 5505 5502 5499 5496 5493 5489 5486 5482 5479 5476 5473 5470 5468 5465 5462 5461 5459 5458 5456 5455 5453 5452 5450 5450 5449 5449 5449 5449 5449 5450 5450 5450 5450 5450 5450 5450 5450 5450 5451 5451 5452 5453 5453 5454 5454 5455 5455 5456 5456 5457 5458 5458 5459 5459 5460 5461 5461 5461 5461 5462 5462 5463 5463 5464 5464 5464 5465 5466 5467 5468 5468 5470 5471 5473 5474 5475 5476
5524 5522 5521 5519 5516 5514 5512 5509 5507 5504 5501 5499 5496 5492 5488 5485 5481 5478 5475 5473 5470 5467 5464 5462 5459 5457 5456 5455 5454 5453 5452 5450 5449 5449 5448 5448 5448 5449 5449 5449 5449 5448 5448 5448 5448 5448 5448 5449 5450 5451 5452 5453 5454 5454 5455 5455 5456 5456 5457 5457 5458 5458 5459 5460 5460 5461 5461 5461 5462 5462 5462 5463 5463 5464 5464 5465 5465 5466 5467 5468 5469 5470 5471 5472 5473 5474 5475
5521 5519 5517 5515 5513 5510 5508 5505 5503 5500 5497 5494 5491 5488 5484 5480 5477 5474 5471 5469 5467 5464 5461 5458 5456 5454 5453 5452 5452 5451 5450 5449 5448 5448 5448 5448 5448 5448 5448 5448 5448 5448 5448 5448 5448 5448 5448 5449 5450 5451 5452 5453 5454 5455 5455 5456 5456 5457 5457 5458 5458 5459 5459 5460 5461 5461 5461 5462 5462 5462 5463 5463 5463 5464 5464 5465 5466 5466 5467 5468 5469 5469 5470 5471 5472 5472 5473
5517 5515 5513 5511 5509 5507 5504 5502 5500 5496 5493 5490 5486 5483 5480 5476 5473 5471 5468 5465 5462 5460 5457 5455 5453 5452 5451 5450 5450 5449 5448 5447 5447 5446 5447 5447 5447 5447 5447 5447 5447 5447 5447 5447 5447 5447 5448 5449 5450 5451 5452 5453 5454 5455 5456 5456 5457 5457 5458 5459 5459 5459 5459 5460 5460 5461 5461 5462 5462 5463 5463 5463 5464 5464 5464 5465 5466 5466 5467 5468 5468 5469 5470 5471 5471 5471 5472
5514 5512 5510 5508 5505 5503 5500 5498 5496 5493 5490 5486 5482 5478 5475 5472 5469 5467 5465 5462 5459 5456 5454 5452 5451 5450 5449 5449 5448 5447 5446 5446 5445 5445 5446 5446 5446 5446 5446 5446 5446 5446 5446 5446 5446 5447 5448 5449 5450 5451 5452 5453 5454 5454 5455 5456 5457 5458 5458 5459 5459 5459 5459 5459 5460 5461 5461 5462 5462 5463 5463 5463 5464 5464 5464 5465 5466 5466 5467 5468 5468 5469 5469 5470 5471 5471 5471
5510 5508 5506 5504 5502 5499 5497 5494 5492 5489 5486 5482 5478 5474 5471 5468 5465 5463 5462 5460 5457 5453 5451 5450 5449 5448 5447 5447 5446 5445 5445 5444 5444 5444 5444 5445 5445 5445 5445 5445 5445 5445 5445 5446 5446 5446 5447 5449 5450 5451 5452 5453 5453 5454 5455 5456 5457 5457 5458 5458 5458 5459 5459 5459 5460 5460 5461 5462 5462 5462 5463 5463 5463 5463 5464 5464 5465 5466 5466 5467 5468 5468 5469 5469 5470 5470 5471
5507 5505 5502 5500 5498 5496 5493 5491 5488 5485 5482 5478 5474 5470 5467 5465 5462 5460 5458 5456 5454 5451 5450 5449 5447 5446 5445 5445 5444 5443 5443 5442 5442 5443 5443 5444 5444 5444 5444 5444 5444 5444 5445 5445 5446 5446 5447 5449 5450 5450 5451 5451 5452 5453 5454 5455 5456 5456 5457 5457 5458 5458 5459 5459 5459 5460 5460 5461 5462 5462 5462 5462 5462 5462 5463 5463 5464 5465 5465 5466 5466 5467 5468 5468 5469 5469 5469